| time (UTC) | temp C | wind direction | speed KPH | gust KPH | rain 1hr cm | rain 24hr cm | rain mn cm | humidity % | barometer mb |
| 20260831014404 | 16 | 38 | 3.2 | 4.8 | 0.00 | 0.00 | 0.00 | 86 | 1012.8 |
| 20260831013904 | 16 | 34 | 1.6 | 4.8 | 0.00 | 0.00 | 0.00 | 86 | 1012.8 |
| 20260831013404 | 16 | 34 | 0.0 | 1.6 | 0.00 | 0.00 | 0.00 | 86 | 1012.9 |
| 20260831012905 | 16 | 34 | 0.0 | 0.0 | 0.00 | 0.00 | 0.00 | 86 | 1013.1 |
| 20260831012404 | 16 | 34 | 0.0 | 0.0 | 0.00 | 0.00 | 0.00 | 86 | 1013.1 |
| 20260831011904 | 16 | 34 | 0.0 | 4.8 | 0.00 | 0.00 | 0.00 | 86 | 1013.1 |
| 20260831011404 | 16 | 34 | 1.6 | 3.2 | 0.00 | 0.00 | 0.00 | 86 | 1013.0 |
| 20260831010904 | 16 | 34 | 0.0 | 1.6 | 0.00 | 0.00 | 0.00 | 85 | 1013.0 |
| 20260831010404 | 16 | 34 | 0.0 | 0.0 | 0.00 | 0.00 | 0.00 | 85 | 1013.2 |
| 20260831005904 | 16 | 34 | 0.0 | 0.0 | 0.00 | 0.00 | 0.00 | 85 | 1013.2 |
| 20260831004404 | 16 | 34 | 0.0 | 0.0 | 0.00 | 0.03 | 0.00 | 84 | 1013.3 |
| 20260831003904 | 17 | 34 | 0.0 | 0.0 | 0.00 | 0.03 | 0.00 | 84 | 1013.3 |
| 20260831003404 | 17 | 34 | 0.0 | 4.8 | 0.00 | 0.03 | 0.00 | 84 | 1013.4 |
| 20260831002904 | 17 | 34 | 1.6 | 3.2 | 0.00 | 0.03 | 0.00 | 84 | 1013.4 |
| 20260831002404 | 17 | 34 | 1.6 | 4.8 | 0.00 | 0.03 | 0.00 | 84 | 1013.4 |
| 20260831001904 | 17 | 34 | 3.2 | 4.8 | 0.00 | 0.03 | 0.00 | 84 | 1013.4 |
| 20260831001405 | 17 | 34 | 3.2 | 4.8 | 0.00 | 0.03 | 0.00 | 84 | 1013.3 |
| 20260831000404 | 17 | 34 | 1.6 | 3.2 | 0.00 | 0.03 | 0.00 | 83 | 1013.5 |
| 20260830235904 | 17 | 34 | 0.0 | 0.0 | 0.00 | 0.03 | 0.00 | 83 | 1013.5 |
| 20260830235404 | 17 | 34 | 0.0 | 0.0 | 0.00 | 0.03 | 0.00 | 83 | 1013.5 |
| 20260830234904 | 17 | 34 | 0.0 | 1.6 | 0.00 | 0.03 | 0.00 | 83 | 1013.5 |
| 20260830234405 | 17 | 34 | 0.0 | 0.0 | 0.00 | 0.03 | 0.00 | 83 | 1013.5 |
| 20260830233904 | 17 | 34 | 0.0 | 0.0 | 0.00 | 0.03 | 0.00 | 83 | 1013.5 |
| 20260830233405 | 17 | 34 | 0.0 | 0.0 | 0.00 | 0.03 | 0.00 | 83 | 1013.5 |
| 20260830232904 | 17 | 34 | 0.0 | 0.0 | 0.00 | 0.03 | 0.00 | 83 | 1013.5 |
| 20260830232405 | 17 | 34 | 1.6 | 22.5 | 0.00 | 0.03 | 0.00 | 83 | 1013.5 |
| 20260830231904 | 17 | 34 | 1.6 | 3.2 | 0.00 | 0.03 | 0.00 | 83 | 1013.5 |
| 20260830231404 | 17 | 34 | 1.6 | 3.2 | 0.00 | 0.03 | 0.00 | 83 | 1013.5 |
| 20260830230905 | 17 | 34 | 0.0 | 3.2 | 0.00 | 0.03 | 0.00 | 83 | 1013.5 |
| 20260830225904 | 18 | 34 | 1.6 | 3.2 | 0.00 | 0.03 | 0.00 | 82 | 1013.5 |
| 20260830225404 | 18 | 34 | 1.6 | 3.2 | 0.00 | 0.03 | 0.00 | 82 | 1013.5 |
| 20260830223904 | 18 | 34 | 0.0 | 1.6 | 0.00 | 0.03 | 0.00 | 81 | 1013.6 |
| 20260830222904 | 18 | 34 | 0.0 | 0.0 | 0.00 | 0.03 | 0.00 | 80 | 1013.6 |
| 20260830222404 | 18 | 34 | 0.0 | 0.0 | 0.00 | 0.03 | 0.00 | 80 | 1013.6 |
| 20260830221904 | 18 | 34 | 0.0 | 0.0 | 0.00 | 0.03 | 0.00 | 79 | 1013.6 |
| 20260830221404 | 18 | 34 | 0.0 | 0.0 | 0.00 | 0.03 | 0.00 | 79 | 1013.5 |
| 20260830220904 | 18 | 34 | 0.0 | 1.6 | 0.00 | 0.03 | 0.00 | 79 | 1013.6 |
| 20260830215905 | 18 | 34 | 1.6 | 3.2 | 0.00 | 0.03 | 0.03 | 78 | 1013.5 |
| 20260830215404 | 18 | 34 | 0.0 | 0.0 | 0.00 | 0.03 | 0.03 | 78 | 1013.5 |
| 20260830214906 | 18 | 34 | 1.6 | 3.2 | 0.00 | 0.03 | 0.03 | 78 | 1013.3 |
| 20260830214404 | 18 | 34 | 0.0 | 0.0 | 0.00 | 0.03 | 0.03 | 78 | 1013.3 |
| 20260830213405 | 19 | 34 | 1.6 | 3.2 | 0.00 | 0.03 | 0.03 | 78 | 1013.3 |
| 20260830212404 | 19 | 34 | 0.0 | 3.2 | 0.00 | 0.03 | 0.03 | 77 | 1013.3 |
| 20260830211904 | 19 | 34 | 0.0 | 3.2 | 0.00 | 0.03 | 0.03 | 76 | 1013.4 |
| 20260830211404 | 19 | 34 | 1.6 | 3.2 | 0.00 | 0.03 | 0.03 | 76 | 1013.3 |
| 20260830210904 | 19 | 34 | 1.6 | 4.8 | 0.00 | 0.03 | 0.03 | 76 | 1013.2 |
| 20260830210405 | 19 | 34 | 3.2 | 4.8 | 0.00 | 0.03 | 0.03 | 76 | 1013.2 |
| 20260830205904 | 19 | 34 | 3.2 | 4.8 | 0.00 | 0.03 | 0.03 | 75 | 1013.2 |
| 20260830205405 | 20 | 51 | 3.2 | 4.8 | 0.00 | 0.03 | 0.03 | 75 | 1013.2 |
| 20260830204904 | 20 | 60 | 4.8 | 4.8 | 0.00 | 0.03 | 0.03 | 76 | 1013.1 |
| 20260830204404 | 20 | 61 | 1.6 | 4.8 | 0.00 | 0.03 | 0.03 | 75 | 1013.2 |
| 20260830203904 | 20 | 61 | 1.6 | 4.8 | 0.00 | 0.03 | 0.03 | 74 | 1013.2 |
| 20260830203404 | 20 | 61 | 0.0 | 3.2 | 0.00 | 0.03 | 0.03 | 74 | 1013.1 |
| 20260830202904 | 20 | 61 | 0.0 | 0.0 | 0.00 | 0.03 | 0.03 | 73 | 1013.2 |
| 20260830202405 | 20 | 61 | 0.0 | 0.0 | 0.00 | 0.03 | 0.03 | 73 | 1013.2 |
| 20260830201904 | 20 | 61 | 0.0 | 0.0 | 0.00 | 0.03 | 0.03 | 73 | 1013.2 |
| 20260830200904 | 20 | 61 | 1.6 | 4.8 | 0.00 | 0.03 | 0.03 | 71 | 1013.1 |
| 20260830200404 | 20 | 61 | 1.6 | 4.8 | 0.00 | 0.03 | 0.03 | 70 | 1013.1 |
| 20260830195404 | 20 | 60 | 3.2 | 4.8 | 0.00 | 0.03 | 0.03 | 69 | 1013.0 |
| 20260830194905 | 21 | 63 | 3.2 | 4.8 | 0.00 | 0.03 | 0.03 | 70 | 1013.0 |
| 20260830194405 | 21 | 69 | 3.2 | 4.8 | 0.00 | 0.03 | 0.03 | 69 | 1013.0 |
| 20260830193905 | 21 | 69 | 1.6 | 4.8 | 0.00 | 0.03 | 0.03 | 69 | 1013.0 |
| 20260830193404 | 21 | 69 | 1.6 | 3.2 | 0.00 | 0.03 | 0.03 | 69 | 1013.0 |
| 20260830192404 | 21 | 69 | 3.2 | 4.8 | 0.00 | 0.03 | 0.03 | 69 | 1012.9 |
| 20260830191904 | 21 | 69 | 1.6 | 4.8 | 0.00 | 0.03 | 0.03 | 69 | 1013.0 |
| 20260830191404 | 21 | 69 | 1.6 | 4.8 | 0.00 | 0.03 | 0.03 | 69 | 1012.9 |
| 20260830190404 | 21 | 69 | 3.2 | 4.8 | 0.00 | 0.03 | 0.03 | 68 | 1013.0 |
| 20260830185904 | 22 | 69 | 1.6 | 4.8 | 0.00 | 0.03 | 0.03 | 67 | 1013.0 |
| 20260830185404 | 22 | 69 | 3.2 | 4.8 | 0.00 | 0.03 | 0.03 | 67 | 1012.9 |
| 20260830184404 | 22 | 69 | 1.6 | 4.8 | 0.00 | 0.03 | 0.03 | 65 | 1012.8 |
| 20260830183905 | 22 | 69 | 0.0 | 4.8 | 0.00 | 0.03 | 0.03 | 64 | 1012.8 |
| 20260830183404 | 22 | 73 | 3.2 | 4.8 | 0.00 | 0.03 | 0.03 | 63 | 1012.8 |
| 20260830182404 | 23 | 125 | 1.6 | 3.2 | 0.00 | 0.03 | 0.03 | 63 | 1012.7 |
| 20260830181905 | 23 | 125 | 0.0 | 3.2 | 0.00 | 0.03 | 0.03 | 62 | 1012.6 |
| 20260830181404 | 23 | 125 | 1.6 | 3.2 | 0.00 | 0.03 | 0.03 | 61 | 1012.6 |
| 20260830180904 | 23 | 125 | 0.0 | 1.6 | 0.00 | 0.03 | 0.03 | 61 | 1012.5 |
| 20260830175405 | 25 | 125 | 0.0 | 1.6 | 0.00 | 0.03 | 0.03 | 59 | 1012.4 |
| 20260830174904 | 25 | 125 | 0.0 | 1.6 | 0.00 | 0.03 | 0.03 | 58 | 1012.4 |
| 20260830174405 | 25 | 125 | 0.0 | 0.0 | 0.00 | 0.03 | 0.03 | 57 | 1012.3 |
| 20260830173904 | 26 | 125 | 0.0 | 1.6 | 0.00 | 0.03 | 0.03 | 55 | 1012.3 |
| 20260830173405 | 26 | 125 | 0.0 | 3.2 | 0.00 | 0.03 | 0.03 | 54 | 1012.3 |
| 20260830171904 | 27 | 125 | 0.0 | 3.2 | 0.00 | 0.03 | 0.03 | 52 | 1012.2 |
| 20260830171404 | 27 | 125 | 0.0 | 1.6 | 0.00 | 0.03 | 0.03 | 51 | 1012.2 |
| 20260830170904 | 27 | 125 | 1.6 | 4.8 | 0.00 | 0.03 | 0.03 | 49 | 1012.1 |
| 20260830170404 | 27 | 125 | 0.0 | 1.6 | 0.00 | 0.03 | 0.03 | 49 | 1012.1 |
| 20260830165905 | 27 | 125 | 0.0 | 1.6 | 0.00 | 0.03 | 0.03 | 49 | 1012.1 |
| 20260830165404 | 28 | 125 | 0.0 | 3.2 | 0.00 | 0.03 | 0.03 | 48 | 1012.2 |
| 20260830164405 | 28 | 125 | 0.0 | 1.6 | 0.00 | 0.03 | 0.03 | 47 | 1012.2 |
| 20260830163904 | 28 | 125 | 1.6 | 4.8 | 0.00 | 0.03 | 0.03 | 46 | 1012.2 |
| 20260830163404 | 28 | 125 | 1.6 | 4.8 | 0.00 | 0.03 | 0.03 | 45 | 1012.2 |
| 20260830162905 | 28 | 140 | 0.0 | 4.8 | 0.00 | 0.03 | 0.03 | 45 | 1012.2 |
| 20260830162405 | 28 | 126 | 1.6 | 4.8 | 0.00 | 0.03 | 0.03 | 44 | 1012.3 |
| 20260830161904 | 28 | 153 | 1.6 | 8.0 | 0.00 | 0.03 | 0.03 | 44 | 1012.3 |
| 20260830161404 | 29 | 153 | 3.2 | 9.7 | 0.00 | 0.03 | 0.03 | 44 | 1012.3 |
| 20260830160905 | 29 | 125 | 3.2 | 9.7 | 0.00 | 0.03 | 0.03 | 43 | 1012.3 |
| 20260830155904 | 29 | 143 | 1.6 | 4.8 | 0.00 | 0.03 | 0.03 | 43 | 1012.4 |
| 20260830155404 | 29 | 215 | 0.0 | 11.3 | 0.00 | 0.03 | 0.03 | 44 | 1012.4 |
| 20260830154904 | 29 | 214 | 4.8 | 9.7 | 0.00 | 0.03 | 0.03 | 44 | 1012.4 |
| 20260830154404 | 29 | 188 | 1.6 | 4.8 | 0.00 | 0.03 | 0.03 | 44 | 1012.5 |
| 20260830153904 | 29 | 188 | 3.2 | 9.7 | 0.00 | 0.03 | 0.03 | 43 | 1012.5 |
| 20260830153404 | 29 | 138 | 4.8 | 8.0 | 0.00 | 0.03 | 0.03 | 43 | 1012.5 |
| 20260830152404 | 29 | 96 | 3.2 | 9.7 | 0.00 | 0.03 | 0.03 | 43 | 1012.6 |
| 20260830151904 | 28 | 157 | 0.0 | 4.8 | 0.00 | 0.03 | 0.03 | 45 | 1012.6 |
| 20260830151404 | 28 | 157 | 1.6 | 4.8 | 0.00 | 0.03 | 0.03 | 43 | 1012.6 |
| 20260830150405 | 28 | 207 | 3.2 | 4.8 | 0.00 | 0.03 | 0.03 | 44 | 1012.7 |
| 20260830145904 | 29 | 215 | 3.2 | 9.7 | 0.00 | 0.03 | 0.03 | 44 | 1012.8 |
| 20260830144904 | 29 | 183 | 3.2 | 16.1 | 0.00 | 0.03 | 0.03 | 44 | 1012.8 |
| 20260830144404 | 29 | 214 | 3.2 | 9.7 | 0.00 | 0.05 | 0.03 | 44 | 1012.8 |
| 20260830143905 | 29 | 206 | 4.8 | 14.5 | 0.00 | 0.05 | 0.03 | 43 | 1012.8 |
| 20260830143404 | 29 | 198 | 8.0 | 19.3 | 0.00 | 0.05 | 0.03 | 42 | 1012.8 |
| 20260830142904 | 30 | 194 | 8.0 | 16.1 | 0.00 | 0.05 | 0.03 | 43 | 1012.9 |
| 20260830142404 | 30 | 178 | 4.8 | 11.3 | 0.00 | 0.05 | 0.03 | 43 | 1012.9 |
| 20260830141904 | 30 | 184 | 3.2 | 12.9 | 0.00 | 0.05 | 0.03 | 42 | 1012.9 |
| 20260830141404 | 30 | 204 | 9.7 | 19.3 | 0.00 | 0.05 | 0.03 | 42 | 1012.9 |
| 20260830140904 | 30 | 224 | 9.7 | 14.5 | 0.00 | 0.05 | 0.03 | 42 | 1013.0 |
| 20260830140404 | 30 | 235 | 9.7 | 16.1 | 0.00 | 0.05 | 0.03 | 40 | 1013.0 |
| 20260830135904 | 30 | 216 | 9.7 | 19.3 | 0.00 | 0.05 | 0.03 | 43 | 1013.0 |
| 20260830135404 | 30 | 203 | 3.2 | 9.7 | 0.00 | 0.05 | 0.03 | 43 | 1013.1 |
| 20260830134904 | 30 | 170 | 4.8 | 16.1 | 0.00 | 0.05 | 0.03 | 42 | 1013.1 |
| 20260830134404 | 30 | 242 | 9.7 | 19.3 | 0.00 | 0.05 | 0.03 | 44 | 1013.1 |
| 20260830133904 | 29 | 211 | 6.4 | 12.9 | 0.00 | 0.05 | 0.03 | 44 | 1013.2 |
| 20260830133404 | 29 | 184 | 1.6 | 8.0 | 0.00 | 0.05 | 0.03 | 43 | 1013.2 |
| 20260830132404 | 29 | 177 | 6.4 | 19.3 | 0.00 | 0.05 | 0.03 | 43 | 1013.3 |
| 20260830130904 | 28 | 245 | 9.7 | 16.1 | 0.00 | 0.05 | 0.03 | 45 | 1013.4 |
| 20260830130404 | 28 | 215 | 3.2 | 11.3 | 0.00 | 0.05 | 0.03 | 45 | 1013.4 |
| 20260830125904 | 28 | 173 | 8.0 | 19.3 | 0.00 | 0.05 | 0.03 | 45 | 1013.6 |
| 20260830124904 | 28 | 224 | 4.8 | 11.3 | 0.00 | 0.05 | 0.03 | 45 | 1013.6 |
| 20260830124404 | 28 | 253 | 4.8 | 12.9 | 0.00 | 0.05 | 0.03 | 46 | 1013.6 |
| 20260830123904 | 28 | 219 | 9.7 | 22.5 | 0.00 | 0.05 | 0.03 | 45 | 1013.7 |
| 20260830123404 | 28 | 233 | 11.3 | 19.3 | 0.00 | 0.05 | 0.03 | 46 | 1013.7 |
| 20260830122904 | 28 | 245 | 6.4 | 14.5 | 0.00 | 0.05 | 0.03 | 48 | 1013.7 |
| 20260830122404 | 27 | 237 | 8.0 | 22.5 | 0.00 | 0.05 | 0.03 | 46 | 1013.7 |
| 20260830121904 | 27 | 207 | 9.7 | 22.5 | 0.00 | 0.05 | 0.03 | 45 | 1013.8 |
| 20260830120404 | 27 | 201 | 11.3 | 20.9 | 0.00 | 0.05 | 0.03 | 47 | 1013.8 |
| 20260830115406 | 27 | 219 | 8.0 | 16.1 | 0.00 | 0.05 | 0.03 | 47 | 1013.8 |
| 20260830114904 | 27 | 234 | 8.0 | 14.5 | 0.00 | 0.05 | 0.03 | 48 | 1013.8 |
| 20260830114404 | 27 | 210 | 8.0 | 22.5 | 0.00 | 0.05 | 0.03 | 47 | 1013.8 |
| 20260830113405 | 27 | 234 | 11.3 | 19.3 | 0.00 | 0.05 | 0.03 | 48 | 1013.9 |
| 20260830112904 | 27 | 230 | 14.5 | 20.9 | 0.00 | 0.05 | 0.03 | 49 | 1014.0 |
| 20260830112404 | 27 | 209 | 8.0 | 16.1 | 0.00 | 0.05 | 0.03 | 48 | 1014.0 |
| 20260830110904 | 26 | 229 | 9.7 | 19.3 | 0.00 | 0.05 | 0.03 | 48 | 1014.2 |
| 20260830105904 | 26 | 207 | 8.0 | 14.5 | 0.00 | 0.05 | 0.03 | 48 | 1014.3 |
| 20260830105404 | 26 | 207 | 9.7 | 19.3 | 0.00 | 0.05 | 0.03 | 47 | 1014.3 |
| 20260830104905 | 26 | 230 | 8.0 | 16.1 | 0.00 | 0.05 | 0.03 | 47 | 1014.2 |
| 20260830104404 | 26 | 223 | 8.0 | 14.5 | 0.00 | 0.05 | 0.03 | 47 | 1014.3 |
| 20260830103404 | 26 | 209 | 8.0 | 12.9 | 0.00 | 0.05 | 0.03 | 48 | 1014.4 |
| 20260830101904 | 26 | 242 | 8.0 | 16.1 | 0.00 | 0.05 | 0.03 | 52 | 1014.5 |
| 20260830101404 | 26 | 226 | 4.8 | 16.1 | 0.00 | 0.05 | 0.03 | 52 | 1014.7 |
| 20260830100904 | 26 | 187 | 3.2 | 12.9 | 0.00 | 0.05 | 0.03 | 52 | 1014.7 |
| 20260830100404 | 26 | 209 | 4.8 | 16.1 | 0.00 | 0.05 | 0.03 | 53 | 1014.8 |
| 20260830095905 | 26 | 215 | 3.2 | 19.3 | 0.00 | 0.08 | 0.03 | 53 | 1014.8 |
| 20260830095404 | 26 | 225 | 6.4 | 16.1 | 0.00 | 0.08 | 0.03 | 52 | 1014.8 |
| 20260830094404 | 25 | 172 | 4.8 | 12.9 | 0.00 | 0.08 | 0.03 | 53 | 1015.0 |
| 20260830093904 | 25 | 192 | 6.4 | 11.3 | 0.00 | 0.08 | 0.03 | 55 | 1014.9 |
| 20260830093405 | 25 | 206 | 8.0 | 12.9 | 0.00 | 0.08 | 0.03 | 53 | 1015.0 |
| 20260830092904 | 25 | 183 | 4.8 | 14.5 | 0.00 | 0.08 | 0.03 | 55 | 1015.0 |
| 20260830092404 | 25 | 223 | 8.0 | 12.9 | 0.00 | 0.08 | 0.03 | 56 | 1015.0 |
| 20260830091904 | 25 | 234 | 6.4 | 14.5 | 0.00 | 0.08 | 0.03 | 57 | 1015.0 |
| 20260830091405 | 25 | 231 | 6.4 | 12.9 | 0.00 | 0.08 | 0.03 | 58 | 1015.0 |
| 20260830090904 | 25 | 198 | 4.8 | 16.1 | 0.00 | 0.08 | 0.03 | 57 | 1015.0 |
| 20260830090404 | 25 | 200 | 4.8 | 11.3 | 0.00 | 0.08 | 0.03 | 59 | 1014.9 |
| 20260830085905 | 24 | 191 | 4.8 | 12.9 | 0.00 | 0.08 | 0.03 | 59 | 1015.0 |
| 20260830085404 | 24 | 188 | 4.8 | 14.5 | 0.00 | 0.08 | 0.03 | 58 | 1015.0 |
| 20260830084905 | 24 | 195 | 8.0 | 14.5 | 0.00 | 0.08 | 0.03 | 58 | 1015.1 |
| 20260830084404 | 24 | 235 | 8.0 | 12.9 | 0.00 | 0.08 | 0.03 | 60 | 1015.1 |
| 20260830083904 | 23 | 182 | 3.2 | 11.3 | 0.00 | 0.10 | 0.03 | 58 | 1015.1 |
| 20260830082905 | 23 | 135 | 3.2 | 9.7 | 0.00 | 0.10 | 0.03 | 61 | 1015.2 |
| 20260830082404 | 23 | 235 | 4.8 | 9.7 | 0.00 | 0.10 | 0.03 | 64 | 1015.2 |
| 20260830081905 | 23 | 249 | 3.2 | 9.7 | 0.00 | 0.10 | 0.03 | 63 | 1015.1 |
| 20260830080904 | 22 | 208 | 1.6 | 8.0 | 0.00 | 0.10 | 0.03 | 68 | 1015.2 |
| 20260830080404 | 22 | 213 | 1.6 | 4.8 | 0.00 | 0.10 | 0.03 | 68 | 1015.2 |
| 20260830075904 | 22 | 264 | 1.6 | 3.2 | 0.00 | 0.10 | 0.03 | 69 | 1015.1 |
| 20260830075405 | 21 | 264 | 1.6 | 3.2 | 0.00 | 0.10 | 0.03 | 71 | 1015.1 |
| 20260830074904 | 21 | 263 | 0.0 | 4.8 | 0.00 | 0.10 | 0.03 | 72 | 1015.2 |
| 20260830074405 | 21 | 268 | 1.6 | 4.8 | 0.00 | 0.10 | 0.03 | 76 | 1015.1 |
| 20260830073904 | 20 | 268 | 0.0 | 4.8 | 0.00 | 0.13 | 0.03 | 77 | 1015.1 |
| 20260830073404 | 20 | 268 | 3.2 | 4.8 | 0.00 | 0.13 | 0.03 | 80 | 1015.1 |
| 20260830072904 | 20 | 278 | 3.2 | 4.8 | 0.00 | 0.13 | 0.03 | 83 | 1015.1 |
| 20260830072404 | 19 | 48 | 0.0 | 1.6 | 0.00 | 0.13 | 0.03 | 87 | 1015.1 |
| 20260830071904 | 18 | 48 | 0.0 | 3.2 | 0.00 | 0.13 | 0.03 | 90 | 1015.1 |
| 20260830071404 | 18 | 48 | 0.0 | 3.2 | 0.00 | 0.13 | 0.03 | 90 | 1015.1 |
| 20260830070905 | 18 | 48 | 0.0 | 3.2 | 0.00 | 0.13 | 0.03 | 92 | 1015.1 |
| 20260830070404 | 17 | 48 | 0.0 | 0.0 | 0.00 | 0.13 | 0.03 | 92 | 1015.0 |
| 20260830065904 | 17 | 48 | 0.0 | 0.0 | 0.00 | 0.13 | 0.03 | 92 | 1015.0 |
| 20260830064906 | 16 | 48 | 0.0 | 1.6 | 0.00 | 0.13 | 0.03 | 92 | 1014.9 |
| 20260830064404 | 16 | 48 | 0.0 | 1.6 | 0.00 | 0.13 | 0.03 | 92 | 1015.0 |
| 20260830063904 | 16 | 48 | 1.6 | 4.8 | 0.00 | 0.13 | 0.03 | 92 | 1014.9 |
| 20260830063404 | 15 | 48 | 3.2 | 4.8 | 0.00 | 0.13 | 0.03 | 92 | 1015.0 |
| 20260830062404 | 15 | 48 | 1.6 | 4.8 | 0.00 | 0.15 | 0.03 | 92 | 1015.0 |
| 20260830061404 | 15 | 48 | 1.6 | 4.8 | 0.00 | 0.15 | 0.03 | 92 | 1015.0 |
| 20260830060404 | 15 | 47 | 1.6 | 4.8 | 0.00 | 0.15 | 0.03 | 92 | 1015.0 |
| 20260830055904 | 15 | 47 | 3.2 | 4.8 | 0.00 | 0.15 | 0.03 | 92 | 1014.9 |
| 20260830054904 | 14 | 51 | 4.8 | 8.0 | 0.00 | 0.15 | 0.03 | 92 | 1014.9 |
| 20260830054404 | 14 | 51 | 3.2 | 4.8 | 0.00 | 0.15 | 0.03 | 92 | 1015.0 |
| 20260830053904 | 14 | 50 | 3.2 | 8.0 | 0.00 | 0.15 | 0.03 | 92 | 1014.9 |
| 20260830053404 | 13 | 52 | 3.2 | 8.0 | 0.00 | 0.15 | 0.03 | 92 | 1014.9 |
| 20260830052904 | 13 | 55 | 4.8 | 4.8 | 0.00 | 0.15 | 0.03 | 92 | 1014.8 |
| 20260830052404 | 13 | 55 | 3.2 | 4.8 | 0.00 | 0.15 | 0.03 | 92 | 1014.9 |
| 20260830051904 | 13 | 61 | 3.2 | 4.8 | 0.00 | 0.15 | 0.03 | 92 | 1014.9 |
| 20260830051404 | 13 | 51 | 3.2 | 4.8 | 0.00 | 0.15 | 0.03 | 92 | 1014.8 |
| 20260830050904 | 13 | 60 | 3.2 | 4.8 | 0.00 | 0.15 | 0.03 | 92 | 1014.9 |
| 20260830045904 | 13 | 60 | 1.6 | 4.8 | 0.00 | 0.15 | 0.03 | 92 | 1014.9 |
| 20260830044905 | 13 | 60 | 0.0 | 0.0 | 0.00 | 0.15 | 0.03 | 92 | 1014.9 |
| 20260830044404 | 13 | 60 | 0.0 | 0.0 | 0.00 | 0.15 | 0.03 | 92 | 1014.8 |
| 20260830043904 | 13 | 60 | 0.0 | 0.0 | 0.00 | 0.15 | 0.03 | 92 | 1014.8 |
| 20260830043404 | 13 | 60 | 0.0 | 0.0 | 0.00 | 0.18 | 0.03 | 92 | 1014.8 |
| 20260830042905 | 13 | 60 | 0.0 | 0.0 | 0.00 | 0.18 | 0.03 | 92 | 1014.8 |
| 20260830042404 | 13 | 60 | 0.0 | 0.0 | 0.00 | 0.18 | 0.03 | 92 | 1014.7 |
| 20260830041904 | 13 | 60 | 0.0 | 3.2 | 0.00 | 0.18 | 0.03 | 92 | 1014.8 |
| 20260830041405 | 13 | 60 | 1.6 | 4.8 | 0.00 | 0.18 | 0.03 | 92 | 1014.7 |
| 20260830040904 | 13 | 60 | 1.6 | 4.8 | 0.00 | 0.18 | 0.03 | 92 | 1014.7 |
| 20260830040404 | 13 | 60 | 0.0 | 3.2 | 0.00 | 0.18 | 0.03 | 92 | 1014.6 |
| 20260830035905 | 13 | 60 | 1.6 | 3.2 | 0.00 | 0.20 | 0.03 | 91 | 1014.6 |
| 20260830034904 | 13 | 60 | 0.0 | 3.2 | 0.00 | 0.20 | 0.03 | 91 | 1014.6 |
| 20260830034404 | 13 | 60 | 0.0 | 0.0 | 0.00 | 0.20 | 0.03 | 91 | 1014.6 |
| 20260830033904 | 13 | 60 | 0.0 | 0.0 | 0.00 | 0.20 | 0.03 | 91 | 1014.5 |
| 20260830033405 | 13 | 60 | 0.0 | 0.0 | 0.00 | 0.20 | 0.03 | 91 | 1014.5 |
| 20260830032904 | 13 | 60 | 0.0 | 0.0 | 0.00 | 0.20 | 0.03 | 91 | 1014.5 |
| 20260830032404 | 13 | 60 | 0.0 | 0.0 | 0.00 | 0.20 | 0.03 | 91 | 1014.5 |
| 20260830031404 | 13 | 60 | 0.0 | 0.0 | 0.00 | 0.23 | 0.03 | 91 | 1014.5 |
| 20260830030905 | 13 | 60 | 0.0 | 0.0 | 0.00 | 0.23 | 0.03 | 91 | 1014.5 |
| 20260830030404 | 13 | 60 | 0.0 | 0.0 | 0.00 | 0.23 | 0.03 | 91 | 1014.5 |
| 20260830025404 | 13 | 60 | 0.0 | 0.0 | 0.00 | 0.23 | 0.03 | 91 | 1014.4 |
| 20260830024405 | 13 | 60 | 0.0 | 0.0 | 0.00 | 0.23 | 0.03 | 91 | 1014.4 |
| 20260830023404 | 13 | 60 | 0.0 | 0.0 | 0.00 | 0.23 | 0.03 | 91 | 1014.4 |
| 20260830022904 | 13 | 60 | 0.0 | 1.6 | 0.00 | 0.23 | 0.03 | 91 | 1014.4 |
| 20260830022404 | 14 | 60 | 0.0 | 3.2 | 0.00 | 0.25 | 0.03 | 91 | 1014.3 |
| 20260830021404 | 13 | 60 | 1.6 | 4.8 | 0.00 | 0.25 | 0.03 | 91 | 1014.3 |
| 20260830020904 | 13 | 60 | 3.2 | 4.8 | 0.00 | 0.28 | 0.03 | 91 | 1014.4 |
| 20260830020404 | 13 | 60 | 0.0 | 0.0 | 0.00 | 0.28 | 0.03 | 91 | 1014.4 |
| 20260830015404 | 14 | 60 | 0.0 | 3.2 | 0.00 | 0.30 | 0.03 | 91 | 1014.4 |
| 20260830014904 | 14 | 60 | 1.6 | 3.2 | 0.03 | 0.30 | 0.03 | 91 | 1014.4 |